Location: Braden Valley Church
(38.0012°N, 88.6106°W)
Time: 07:28:40
(UTC+00:00)

SL-08 RB Rocket - Pass Details

Date: 08 December 2021
Orbit: 645 x 684 km, 97.8° (Epoch: 16 January)

Event Time Altitude Azimuth Distance (km) Brightness Sun altitude
Rises 23:48:17 0° 142° (SE) 3,026 6.9 -14.1°
Reaches altitude 10° 23:50:43 10° 132° (SE) 2,112 6.0 -14.6°
Maximum altitude 23:54:45 31° 71° (ENE) 1,186 4.4 -15.3°
Drops below altitude 10° 23:58:46 10° 9° (N) 2,106 6.0 -16.1°
Sets 00:01:11 0° 360° (N) 3,017 6.9 -16.5°
